CW2057 Weather Reports


Display with metric or nautical units.
time (UTC)temp
F
wind
direction
speed
MPH
gust
MPH
rain 1hr
in
rain 24hr
in
rain mn
in
humidity
%
barometer
mb
20260510112128 52 49 0.0 0.0 0.00 0.00 0.00 89 1013.6
20260510111618 52 49 0.0 0.0 0.00 0.00 0.00 89 1013.4
20260510111126 52 49 0.0 0.0 0.00 0.00 0.00 90 1013.3
20260510110615 51 49 0.0 0.0 0.00 0.00 0.00 90 1013.2
20260510110124 51 49 0.0 0.0 0.00 0.00 0.00 89 1013.2
20260510105633 51 76 0.0 0.0 0.00 0.00 0.00 88 1013.2
20260510105121 51 76 0.0 0.0 0.00 0.00 0.00 89 1013.0
20260510104629 51 76 0.0 0.0 0.00 0.00 0.00 88 1013.0
20260510104119 51 76 0.0 0.0 0.00 0.00 0.00 89 1012.9
20260510103626 50 71 0.0 0.0 0.00 0.00 0.00 90 1012.7
20260510103116 50 53 0.0 0.0 0.00 0.00 0.00 90 1012.6
20260510102626 50 53 0.0 0.0 0.00 0.00 0.00 90 1012.6
20260510102114 49 53 0.0 0.0 0.00 0.00 0.00 89 1012.5
20260510101623 49 53 0.0 0.0 0.00 0.00 0.00 88 1012.4
20260510101131 50 53 0.0 0.0 0.00 0.00 0.00 88 1012.3
20260510100620 50 53 0.0 0.0 0.00 0.00 0.00 87 1012.2
20260510100124 50 53 0.0 0.0 0.00 0.00 0.00 88 1012.2
20260510095613 50 53 0.0 0.0 0.00 0.00 0.00 88 1012.3
20260510095121 50 53 0.0 0.0 0.00 0.00 0.00 88 1012.2
20260510094651 50 53 0.0 0.0 0.00 0.00 0.00 89 1012.2
20260510094118 50 53 0.0 0.0 0.00 0.00 0.00 88 1012.2
20260510093626 50 53 0.0 0.0 0.00 0.00 0.00 86 1012.3
20260510093115 51 53 0.0 0.0 0.00 0.00 0.00 86 1012.4
20260510092643 51 53 0.0 0.0 0.00 0.00 0.00 87 1012.2
20260510092131 51 53 0.0 0.0 0.00 0.00 0.00 88 1012.2
20260510091620 50 53 0.0 0.0 0.00 0.00 0.00 89 1012.2
20260510091130 50 53 0.0 0.0 0.00 0.00 0.00 89 1012.3
20260510090617 50 53 0.0 0.0 0.00 0.00 0.00 88 1012.3
20260510090127 50 53 0.0 0.0 0.00 0.00 0.00 89 1012.2
20260510085616 50 53 0.0 0.0 0.00 0.00 0.00 89 1012.2
20260510085124 51 74 0.0 0.0 0.00 0.00 0.00 89 1012.2
20260510084614 50 80 0.0 0.0 0.00 0.00 0.00 89 1012.2
20260510084122 50 80 0.0 0.0 0.00 0.00 0.00 88 1012.2
20260510083647 50 80 0.0 0.0 0.00 0.00 0.00 90 1012.1
20260510083115 50 80 0.0 0.0 0.00 0.00 0.00 89 1012.2
20260510082624 50 80 0.0 0.0 0.00 0.00 0.00 88 1012.1
20260510082152 51 56 0.0 0.0 0.00 0.00 0.00 87 1012.1
20260510081621 51 56 0.0 0.0 0.00 0.00 0.00 87 1012.0
20260510081129 51 56 0.0 0.0 0.00 0.00 0.00 88 1012.1
20260510080618 51 56 0.0 0.0 0.00 0.00 0.00 88 1011.9
20260510080127 51 55 0.0 0.0 0.00 0.00 0.00 88 1011.8
20260510075616 51 56 0.0 0.0 0.00 0.00 0.00 89 1011.7
20260510075125 51 56 0.0 0.0 0.00 0.00 0.00 89 1011.6
20260510074615 51 56 0.0 0.0 0.00 0.00 0.00 89 1011.6
20260510074123 51 55 0.0 0.0 0.00 0.00 0.00 89 1011.6
20260510073632 51 56 0.0 0.0 0.00 0.00 0.00 88 1011.4
20260510073121 51 55 0.0 0.0 0.00 0.00 0.00 86 1011.4
20260510072630 51 56 0.0 0.0 0.00 0.00 0.00 87 1011.4
20260510072118 51 55 0.0 0.0 0.00 0.00 0.00 88 1011.3
20260510071120 53 56 0.0 0.0 0.00 0.00 0.00 85 1011.3
20260510070628 53 56 0.0 0.0 0.00 0.00 0.00 86 1011.2
20260510070118 52 56 0.0 0.0 0.00 0.00 0.00 88 1011.1
20260510065626 52 56 0.0 0.0 0.00 0.00 0.00 88 1011.1
20260510065135 52 56 0.0 0.0 0.00 0.00 0.00 87 1011.1
20260510064621 52 56 0.0 0.0 0.00 0.00 0.00 87 1011.1
20260510064151 52 56 0.0 0.0 0.00 0.00 0.00 88 1011.1
20260510063618 52 55 0.0 0.0 0.00 0.00 0.00 88 1010.9
20260510063127 52 56 0.0 0.0 0.00 0.00 0.00 89 1010.9
20260510062651 52 56 0.0 0.0 0.00 0.00 0.00 89 1010.9
20260510062139 52 55 0.0 0.0 0.00 0.00 0.00 88 1010.9
20260510061627 53 56 0.0 0.0 0.00 0.00 0.00 88 1010.9
20260510061116 53 56 0.0 0.0 0.00 0.00 0.00 88 1010.9
20260510060625 53 55 0.0 0.0 0.00 0.00 0.00 90 1010.9
20260510060135 53 55 0.0 0.0 0.00 0.00 0.00 88 1010.9
20260510055623 54 55 0.0 0.0 0.00 0.00 0.00 87 1011.0
20260510055132 54 56 0.0 0.0 0.00 0.00 0.00 88 1011.0
20260510054642 54 55 0.0 0.0 0.00 0.00 0.00 88 1011.0
20260510054129 54 55 0.0 0.0 0.00 0.00 0.00 87 1011.0
20260510053619 54 56 0.0 0.0 0.00 0.00 0.00 87 1011.1
20260510053128 54 56 0.0 0.0 0.00 0.00 0.00 88 1011.1
20260510052616 54 56 0.0 0.0 0.00 0.00 0.00 87 1011.2
20260510052126 54 56 0.0 0.0 0.00 0.00 0.00 87 1011.2
20260510051615 55 55 0.0 0.0 0.00 0.00 0.00 87 1011.2
20260510051124 55 56 0.0 0.0 0.00 0.00 0.00 88 1011.1
20260510050629 55 56 0.0 0.0 0.00 0.00 0.00 87 1011.1
20260510050118 55 55 0.0 0.0 0.00 0.00 0.00 86 1011.2
20260510045626 55 56 0.0 0.0 0.00 0.00 0.00 87 1011.3
20260510045115 55 56 0.0 0.0 0.00 0.00 0.00 86 1011.2
20260510044625 55 55 0.0 0.0 0.00 0.00 0.00 87 1011.3
20260510044114 56 56 0.0 0.0 0.00 0.00 0.00 87 1011.2
20260510043621 56 56 0.0 0.0 0.00 0.00 0.00 87 1011.2
20260510043129 56 56 0.0 0.0 0.00 0.00 0.00 87 1011.2
20260510042618 56 56 0.0 0.0 0.00 0.00 0.00 87 1011.3
20260510042127 56 56 0.0 0.0 0.00 0.00 0.00 87 1011.3
20260510041616 56 56 0.0 0.0 0.00 0.00 0.00 87 1011.1
20260510041125 56 56 0.0 0.0 0.00 0.00 0.00 87 1011.1
20260510040614 56 56 0.0 0.0 0.00 0.00 0.00 87 1011.2
20260510040121 56 55 0.0 0.0 0.00 0.00 0.00 88 1011.2
20260510035627 56 55 0.0 0.0 0.00 0.00 0.00 87 1011.0
20260510035116 56 56 0.0 0.0 0.00 0.00 0.00 87 1011.0
20260510034624 56 55 0.0 0.0 0.00 0.00 0.00 87 1011.1
20260510034132 57 56 0.0 0.0 0.00 0.00 0.00 86 1011.1
20260510033622 57 55 0.0 0.0 0.00 0.00 0.00 85 1011.1
20260510033130 57 56 0.0 0.0 0.00 0.00 0.00 85 1011.0
20260510032618 57 56 0.0 0.0 0.00 0.00 0.00 86 1011.0
20260510032126 57 56 0.0 0.0 0.00 0.00 0.00 86 1011.0
20260510031615 57 55 0.0 0.0 0.00 0.00 0.00 85 1011.0
20260510031140 58 55 0.0 0.0 0.00 0.00 0.00 85 1011.0
20260510030627 58 55 0.0 0.0 0.00 0.00 0.00 84 1010.9
20260510030134 58 56 0.0 0.0 0.00 0.00 0.00 84 1011.0
20260510025622 59 56 0.0 0.0 0.00 0.00 0.00 83 1010.9
20260510025130 59 56 0.0 0.0 0.00 0.00 0.00 83 1010.9
20260510024619 59 44 0.0 0.0 0.00 0.00 0.00 82 1010.9
20260510024148 59 44 0.0 0.0 0.00 0.00 0.00 82 1010.8
20260510023616 59 44 0.0 0.0 0.00 0.00 0.00 82 1010.8
20260510023125 59 44 0.0 0.0 0.00 0.00 0.00 82 1010.7
20260510022614 60 44 0.0 0.0 0.00 0.00 0.00 81 1010.8
20260510022122 60 64 0.0 2.0 0.00 0.00 0.00 81 1010.7
20260510021630 60 32 0.0 2.0 0.00 0.00 0.00 81 1010.8
20260510021118 60 17 0.0 1.0 0.00 0.00 0.00 81 1010.8
20260510020628 60 19 0.0 1.0 0.00 0.00 0.00 80 1010.8
20260510020116 60 53 0.0 1.0 0.00 0.00 0.00 80 1010.8
20260510015625 60 59 0.0 1.0 0.00 0.00 0.00 80 1010.7
20260510015114 61 83 0.0 0.0 0.00 0.00 0.00 79 1010.7
20260510014618 61 152 0.0 0.0 0.00 0.00 0.00 78 1010.7
20260510014127 61 65 0.0 0.0 0.00 0.00 0.00 78 1010.6
20260510013617 61 71 0.0 0.0 0.00 0.00 0.00 78 1010.5
20260510013126 61 71 0.0 2.0 0.00 0.00 0.00 78 1010.5
20260510012654 61 72 0.0 2.0 0.00 0.00 0.00 78 1010.4
20260510012122 61 346 0.0 0.0 0.00 0.00 0.00 77 1010.4
20260510011630 62 346 0.0 0.0 0.00 0.00 0.00 77 1010.3
20260510011120 62 272 0.0 0.0 0.00 0.00 0.00 77 1010.1
20260510010628 62 21 0.0 0.0 0.00 0.00 0.00 77 1010.2
20260510010119 62 21 0.0 1.0 0.00 0.00 0.00 77 1010.2
20260510005627 62 21 0.0 1.0 0.00 0.00 0.00 76 1010.1
20260510005117 62 93 0.0 0.0 0.00 0.00 0.00 76 1010.1
20260510004625 63 93 0.0 0.0 0.00 0.00 0.00 76 1010.1
20260510004114 63 93 0.0 0.0 0.00 0.00 0.00 76 1010.1
20260510003623 63 93 0.0 0.0 0.00 0.00 0.00 75 1010.0
20260510003131 63 165 0.0 0.0 0.00 0.00 0.00 74 1009.9
20260510002620 63 165 0.0 0.0 0.00 0.00 0.00 74 1009.9
20260510002149 64 165 0.0 0.0 0.00 0.00 0.00 73 1009.9
20260510001618 64 165 0.0 0.0 0.00 0.00 0.00 73 1009.8
20260510001121 64 165 0.0 2.0 0.00 0.00 0.00 72 1009.7
20260510000631 65 165 0.0 2.0 0.00 0.00 0.00 72 1009.8
20260510000120 65 165 0.0 0.0 0.00 0.00 0.00 72 1009.8
20260509235629 65 165 0.0 0.0 0.00 0.00 0.00 71 1009.7
20260509235137 65 165 0.0 0.0 0.00 0.00 0.00 70 1009.7
20260509234625 66 243 0.0 0.0 0.00 0.00 0.00 70 1009.6
20260509234114 66 245 0.0 0.0 0.00 0.00 0.00 69 1009.6
20260509233642 66 224 0.0 0.0 0.00 0.00 0.00 69 1009.7
20260509233130 66 165 0.0 0.0 0.00 0.00 0.00 69 1009.7
20260509232640 66 165 0.0 2.0 0.00 0.00 0.00 69 1009.3
20260509232128 66 126 0.0 2.0 0.00 0.00 0.00 69 1009.4
20260509231617 66 131 0.0 2.0 0.00 0.00 0.00 68 1009.5
20260509231126 67 135 0.0 2.0 0.00 0.00 0.00 68 1009.4
20260509230615 67 299 0.0 3.0 0.00 0.00 0.00 67 1009.4
20260509230125 67 156 0.0 3.0 0.00 0.00 0.00 67 1009.4
20260509225615 67 176 0.0 3.0 0.00 0.00 0.00 68 1009.4
20260509225123 67 102 0.0 3.0 0.00 0.00 0.00 67 1009.3
20260509224628 67 50 0.0 2.0 0.00 0.00 0.00 67 1009.3
20260509224118 67 191 1.0 2.0 0.00 0.00 0.00 67 1009.4
20260509223626 67 108 0.0 3.0 0.00 0.00 0.00 67 1009.4
20260509223113 68 109 1.0 6.0 0.00 0.00 0.00 67 1009.3
20260509222623 68 98 0.0 6.0 0.00 0.00 0.00 66 1009.4
20260509222151 69 127 1.0 8.0 0.00 0.00 0.00 65 1009.4
20260509221639 69 176 1.0 8.0 0.00 0.00 0.00 65 1009.4
20260509221147 70 143 1.0 4.0 0.00 0.00 0.00 63 1009.4
20260509220635 70 255 0.0 4.0 0.00 0.00 0.00 63 1009.4
20260509220123 70 210 1.0 4.0 0.00 0.00 0.00 63 1009.4
20260509215633 70 121 0.0 4.0 0.00 0.00 0.00 64 1009.4
20260509215121 69 129 0.0 5.0 0.00 0.00 0.00 63 1009.4
20260509214630 70 132 2.0 5.0 0.00 0.00 0.00 64 1009.4
20260509214119 70 118 1.0 4.0 0.00 0.00 0.00 63 1009.4
20260509213643 70 93 1.0 4.0 0.00 0.00 0.00 64 1009.4
20260509213149 70 143 0.0 4.0 0.00 0.00 0.00 63 1009.4
20260509212618 71 201 3.0 4.0 0.00 0.00 0.00 59 1009.4
20260509212127 71 311 1.0 4.0 0.00 0.00 0.00 57 1009.4
20260509211635 71 320 1.0 4.0 0.00 0.00 0.00 57 1009.4
20260509211122 71 359 1.0 4.0 0.00 0.00 0.00 57 1009.4
20260509210631 71 297 1.0 8.0 0.00 0.00 0.00 58 1009.4
20260509210139 71 287 3.0 10.0 0.00 0.00 0.00 57 1009.3
20260509205625 71 332 3.0 10.0 0.00 0.00 0.00 57 1009.3
20260509205114 71 307 1.0 4.0 0.00 0.00 0.00 59 1009.2
20260509204622 71 326 1.0 5.0 0.00 0.00 0.00 57 1009.2
20260509204131 71 298 2.0 5.0 0.00 0.00 0.00 57 1009.2
20260509203639 71 17 2.0 5.0 0.00 0.00 0.00 58 1009.2
20260509203127 71 277 2.0 10.0 0.00 0.00 0.00 57 1009.2
20260509202652 71 290 2.0 11.0 0.00 0.00 0.00 58 1009.3
20260509202119 71 200 6.0 11.0 0.00 0.00 0.00 58 1009.2
20260509201629 71 136 1.0 4.0 0.00 0.00 0.00 58 1009.2
20260509201117 71 170 1.0 6.0 0.00 0.00 0.00 58 1009.2
20260509200625 71 226 2.0 6.0 0.00 0.00 0.00 57 1009.3
20260509200114 71 192 1.0 3.0 0.00 0.00 0.00 60 1009.4
20260509195623 70 170 0.0 11.0 0.00 0.00 0.00 62 1009.4
20260509195150 70 28 2.0 11.0 0.00 0.00 0.00 57 1009.5
20260509194618 70 224 1.0 6.0 0.00 0.00 0.00 57 1009.6
20260509194126 70 322 3.0 8.0 0.00 0.00 0.00 58 1009.8
20260509193635 69 250 3.0 8.0 0.00 0.00 0.00 61 1009.9
20260509193122 69 95 1.0 6.0 0.00 0.00 0.00 58 1010.0
20260509192632 69 266 3.0 6.0 0.00 0.00 0.00 60 1009.9
20260509192120 69 183 2.0 5.0 0.00 0.00 0.00 59 1009.9
20260509191627 69 199 0.0 4.0 0.00 0.00 0.00 58 1010.0
20260509191115 68 193 1.0 4.0 0.00 0.00 0.00 60 1009.9
20260509190625 69 232 1.0 3.0 0.00 0.00 0.00 59 1010.1
20260509190128 68 145 1.0 2.0 0.00 0.00 0.00 59 1010.2
20260509185617 68 26 1.0 2.0 0.00 0.00 0.00 61 1010.2
20260509185145 68 143 0.0 2.0 0.00 0.00 0.00 59 1010.2
20260509184614 67 68 1.0 2.0 0.00 0.00 0.00 60 1010.2
20260509184143 67 56 0.0 3.0 0.00 0.00 0.00 59 1010.3
20260509183631 68 336 1.0 3.0 0.00 0.00 0.00 58 1010.4
20260509183119 68 165 0.0 4.0 0.00 0.00 0.00 58 1010.4
20260509182628 67 165 0.0 4.0 0.00 0.00 0.00 59 1010.5
20260509182138 67 10 1.0 4.0 0.00 0.00 0.00 61 1010.7
20260509181627 67 344 0.0 2.0 0.00 0.00 0.00 59 1010.8
20260509181114 67 255 0.0 2.0 0.00 0.00 0.00 59 1011.0
20260509180624 67 243 0.0 2.0 0.00 0.00 0.00 60 1011.2
20260509180114 67 287 0.0 3.0 0.00 0.00 0.00 59 1011.3
20260509175621 67 280 2.0 4.0 0.00 0.00 0.00 58 1011.3
20260509175130 67 12 1.0 4.0 0.00 0.00 0.00 59 1011.4
20260509174620 67 312 0.0 4.0 0.00 0.00 0.00 60 1011.3
20260509174127 66 7 1.0 4.0 0.00 0.00 0.00 59 1011.3
20260509173617 67 320 0.0 3.0 0.00 0.00 0.00 59 1011.4
20260509173140 66 319 0.0 3.0 0.00 0.00 0.00 58 1011.3
20260509172629 66 313 1.0 3.0 0.00 0.00 0.00 61 1011.3
20260509172118 66 43 0.0 3.0 0.00 0.00 0.00 63 1011.4
20260509171627 65 11 0.0 3.0 0.00 0.00 0.00 62 1011.4
20260509171116 65 349 0.0 3.0 0.00 0.00 0.00 62 1011.3
20260509170644 65 333 0.0 2.0 0.00 0.00 0.00 62 1011.6
20260509170153 64 332 0.0 4.0 0.00 0.00 0.00 64 1011.6
20260509165622 65 10 0.0 4.0 0.00 0.00 0.00 62 1011.6
20260509165130 65 318 0.0 1.0 0.00 0.00 0.00 62 1011.6
20260509164619 64 59 0.0 1.0 0.00 0.00 0.00 61 1011.5
20260509164127 64 338 0.0 0.0 0.00 0.00 0.00 64 1011.4
20260509163617 64 339 0.0 0.0 0.00 0.00 0.00 66 1011.5
20260509163125 64 348 0.0 1.0 0.00 0.00 0.00 62 1011.6
20260509162636 65 328 0.0 3.0 0.00 0.00 0.00 62 1011.6
20260509162139 65 292 1.0 3.0 0.00 0.00 0.00 61 1011.7
20260509161626 64 264 0.0 3.0 0.00 0.00 0.00 60 1011.7
20260509161116 64 246 0.0 3.0 0.00 0.00 0.00 62 1011.8
20260509160645 64 263 0.0 2.0 0.00 0.00 0.00 61 1011.8
20260509160114 64 311 0.0 3.0 0.00 0.00 0.00 62 1011.8
20260509155622 64 103 1.0 3.0 0.00 0.00 0.00 62 1011.7
20260509155130 63 179 1.0 4.0 0.00 0.00 0.00 62 1011.7
20260509154638 63 218 1.0 5.0 0.00 0.00 0.00 62 1011.8
20260509154127 63 264 3.0 7.0 0.00 0.00 0.00 61 1011.7
20260509153635 64 96 1.0 7.0 0.00 0.00 0.00 61 1011.7
20260509153123 64 154 2.0 10.0 0.00 0.00 0.00 59 1011.8
20260509152653 65 285 2.0 10.0 0.00 0.00 0.00 60 1011.8
20260509152121 65 243 2.0 10.0 0.00 0.00 0.00 59 1011.8
20260509151629 65 244 1.0 9.0 0.00 0.00 0.00 61 1011.8
20260509151118 65 199 4.0 9.0 0.00 0.00 0.00 59 1011.8
20260509150624 64 303 1.0 5.0 0.00 0.00 0.00 62 1011.9
20260509150133 64 186 2.0 7.0 0.00 0.00 0.00 61 1012.0
20260509145622 63 174 2.0 7.0 0.00 0.00 0.00 60 1012.2
20260509145131 63 147 1.0 6.0 0.00 0.00 0.00 61 1012.2
20260509144619 63 39 2.0 5.0 0.00 0.00 0.00 62 1012.3
20260509144128 63 293 0.0 7.0 0.00 0.00 0.00 63 1012.3
20260509143617 62 239 2.0 7.0 0.00 0.00 0.00 62 1012.4
20260509143126 63 203 2.0 5.0 0.00 0.00 0.00 62 1012.3
20260509142615 62 170 1.0 4.0 0.00 0.00 0.00 62 1012.3
20260509142125 62 165 1.0 3.0 0.00 0.00 0.00 62 1012.1
20260509141613 62 288 1.0 7.0 0.00 0.00 0.00 61 1012.2
20260509141122 62 195 3.0 7.0 0.00 0.00 0.00 61 1012.2
20260509140630 62 120 0.0 10.0 0.00 0.00 0.00 60 1012.1
20260509140119 63 313 1.0 10.0 0.00 0.00 0.00 59 1012.2
20260509135629 63 305 3.0 9.0 0.00 0.00 0.00 60 1012.2
20260509135138 63 222 4.0 6.0 0.00 0.00 0.00 60 1012.1
20260509134625 63 165 1.0 4.0 0.00 0.00 0.00 59 1012.1
20260509134113 63 321 1.0 4.0 0.00 0.00 0.00 60 1012.1
20260509133622 62 282 1.0 9.0 0.00 0.00 0.00 59 1012.2
20260509133129 62 190 2.0 9.0 0.00 0.00 0.00 59 1012.2
20260509132635 62 214 1.0 12.0 0.00 0.00 0.00 59 1012.1
20260509132124 62 314 2.0 12.0 0.00 0.00 0.00 58 1012.2
20260509131653 62 307 2.0 10.0 0.00 0.00 0.00 58 1012.2
20260509131119 62 317 3.0 9.0 0.00 0.00 0.00 58 1012.0
20260509130628 62 113 3.0 7.0 0.00 0.00 0.00 59 1012.0
20260509130117 63 247 3.0 7.0 0.00 0.00 0.00 58 1012.0
20260509125625 63 303 2.0 7.0 0.00 0.00 0.00 58 1012.1
20260509125114 62 316 3.0 6.0 0.00 0.00 0.00 59 1012.0
20260509124622 61 197 1.0 7.0 0.00 0.00 0.00 61 1012.0
20260509124128 60 265 1.0 7.0 0.00 0.00 0.00 61 1012.1
20260509123616 60 86 1.0 4.0 0.00 0.00 0.00 60 1012.1
20260509123124 60 305 1.0 7.0 0.00 0.00 0.00 61 1012.1
20260509122653 59 330 2.0 7.0 0.00 0.00 0.00 61 1012.1
20260509122121 59 296 1.0 7.0 0.00 0.00 0.00 61 1012.1
20260509121629 59 315 2.0 8.0 0.00 0.00 0.00 61 1012.1
20260509121118 59 203 3.0 9.0 0.00 0.00 0.00 62 1012.0
20260509120628 59 178 4.0 9.0 0.00 0.00 0.00 62 1012.0
20260509120117 58 189 1.0 7.0 0.00 0.00 0.00 63 1012.0
20260509115622 58 259 3.0 10.0 0.00 0.00 0.00 62 1011.9
20260509115132 58 248 1.0 10.0 0.00 0.00 0.00 62 1011.8
20260509114620 58 247 3.0 9.0 0.00 0.00 0.00 62 1012.0
20260509114128 58 211 2.0 6.0 0.00 0.00 0.00 62 1011.8
20260509113636 58 149 1.0 4.0 0.00 0.00 0.00 61 1011.9
20260509113124 58 185 1.0 4.0 0.00 0.00 0.00 61 1011.8
20260509112614 58 207 0.0 10.0 0.00 0.00 0.00 61 1011.8